Year,Month,Day,Hour,Minute,Value (Times are PST for insolation in W/m^2)
2008,02,24,00,00,0.00
2008,02,24,00,01,0.00
2008,02,24,00,02,0.00
2008,02,24,00,03,0.00
2008,02,24,00,04,0.00
2008,02,24,00,05,0.00
2008,02,24,00,06,0.00
2008,02,24,00,07,0.00
2008,02,24,00,08,0.00
2008,02,24,00,09,0.00
2008,02,24,00,10,0.00
2008,02,24,00,11,0.00
2008,02,24,00,12,0.00
2008,02,24,00,13,0.00
2008,02,24,00,14,0.00
2008,02,24,00,15,0.00
2008,02,24,00,16,0.00
2008,02,24,00,17,0.00
2008,02,24,00,18,0.00
2008,02,24,00,19,0.00
2008,02,24,00,20,0.00
2008,02,24,00,21,0.00
2008,02,24,00,22,0.00
2008,02,24,00,23,0.00
2008,02,24,00,24,0.00
2008,02,24,00,25,0.00
2008,02,24,00,26,0.00
2008,02,24,00,27,0.00
2008,02,24,00,28,0.00
2008,02,24,00,29,0.00
2008,02,24,00,30,0.00
2008,02,24,00,31,0.00
2008,02,24,00,32,0.00
2008,02,24,00,33,0.00
2008,02,24,00,34,0.00
2008,02,24,00,35,0.00
2008,02,24,00,36,0.00
2008,02,24,00,37,0.00
2008,02,24,00,38,0.00
2008,02,24,00,39,0.00
2008,02,24,00,40,0.00
2008,02,24,00,41,0.00
2008,02,24,00,42,0.00
2008,02,24,00,43,0.00
2008,02,24,00,44,0.00
2008,02,24,00,45,0.00
2008,02,24,00,46,0.00
2008,02,24,00,47,0.00
2008,02,24,00,48,0.00
2008,02,24,00,49,0.00
2008,02,24,00,50,0.00
2008,02,24,00,51,0.00
2008,02,24,00,52,0.00
2008,02,24,00,53,0.00
2008,02,24,00,54,0.00
2008,02,24,00,55,0.00
2008,02,24,00,56,0.00
2008,02,24,00,57,0.00
2008,02,24,00,58,0.00
2008,02,24,00,59,0.00
2008,02,24,01,00,0.00
2008,02,24,01,01,0.00
2008,02,24,01,02,0.00
2008,02,24,01,03,0.00
2008,02,24,01,04,0.00
2008,02,24,01,05,0.00
2008,02,24,01,06,0.00
2008,02,24,01,07,0.00
2008,02,24,01,08,0.00
2008,02,24,01,09,0.00
2008,02,24,01,10,0.00
2008,02,24,01,11,0.00
2008,02,24,01,12,0.00
2008,02,24,01,13,0.00
2008,02,24,01,14,0.00
2008,02,24,01,15,0.00
2008,02,24,01,16,0.00
2008,02,24,01,17,0.00
2008,02,24,01,18,0.00
2008,02,24,01,19,0.00
2008,02,24,01,20,0.00
2008,02,24,01,21,0.00
2008,02,24,01,22,0.00
2008,02,24,01,23,0.00
2008,02,24,01,24,0.00
2008,02,24,01,25,0.00
2008,02,24,01,26,0.00
2008,02,24,01,27,0.00
2008,02,24,01,28,0.00
2008,02,24,01,29,0.00
2008,02,24,01,30,0.00
2008,02,24,01,31,0.00
2008,02,24,01,32,0.00
2008,02,24,01,33,0.00
2008,02,24,01,34,0.00
2008,02,24,01,35,0.00
2008,02,24,01,36,0.00
2008,02,24,01,37,0.00
2008,02,24,01,38,0.00
2008,02,24,01,39,0.00
2008,02,24,01,40,0.00
2008,02,24,01,41,0.00
2008,02,24,01,42,0.00
2008,02,24,01,43,0.00
2008,02,24,01,44,0.00
2008,02,24,01,45,0.00
2008,02,24,01,46,0.00
2008,02,24,01,47,0.00
2008,02,24,01,48,0.00
2008,02,24,01,49,0.00
2008,02,24,01,50,0.00
2008,02,24,01,51,0.00
2008,02,24,01,52,0.00
2008,02,24,01,53,0.00
2008,02,24,01,54,0.00
2008,02,24,01,55,0.00
2008,02,24,01,56,0.00
2008,02,24,01,57,0.00
2008,02,24,01,58,0.00
2008,02,24,01,59,0.00
2008,02,24,02,00,0.00
2008,02,24,02,01,0.00
2008,02,24,02,02,0.00
2008,02,24,02,03,0.00
2008,02,24,02,04,0.00
2008,02,24,02,05,0.00
2008,02,24,02,06,0.00
2008,02,24,02,07,0.00
2008,02,24,02,08,0.00
2008,02,24,02,09,0.00
2008,02,24,02,10,0.00
2008,02,24,02,11,0.00
2008,02,24,02,12,0.00
2008,02,24,02,13,0.00
2008,02,24,02,14,0.00
2008,02,24,02,15,0.00
2008,02,24,02,16,0.00
2008,02,24,02,17,0.00
2008,02,24,02,18,0.00
2008,02,24,02,19,0.00
2008,02,24,02,20,0.00
2008,02,24,02,21,0.00
2008,02,24,02,22,0.00
2008,02,24,02,23,0.00
2008,02,24,02,24,0.00
2008,02,24,02,25,0.00
2008,02,24,02,26,0.00
2008,02,24,02,27,0.00
2008,02,24,02,28,0.00
2008,02,24,02,29,0.00
2008,02,24,02,30,0.00
2008,02,24,02,31,0.00
2008,02,24,02,32,0.00
2008,02,24,02,33,0.00
2008,02,24,02,34,0.00
2008,02,24,02,35,0.00
2008,02,24,02,36,0.00
2008,02,24,02,37,0.00
2008,02,24,02,38,0.00
2008,02,24,02,39,0.00
2008,02,24,02,40,0.00
2008,02,24,02,41,0.00
2008,02,24,02,42,0.00
2008,02,24,02,43,0.00
2008,02,24,02,44,0.00
2008,02,24,02,45,0.00
2008,02,24,02,46,0.00
2008,02,24,02,47,0.00
2008,02,24,02,48,0.00
2008,02,24,02,49,0.00
2008,02,24,02,50,0.00
2008,02,24,02,51,0.00
2008,02,24,02,52,0.00
2008,02,24,02,53,0.00
2008,02,24,02,54,0.00
2008,02,24,02,55,0.00
2008,02,24,02,56,0.00
2008,02,24,02,57,0.00
2008,02,24,02,58,0.00
2008,02,24,02,59,0.00
2008,02,24,03,00,0.00
2008,02,24,03,01,0.00
2008,02,24,03,02,0.00
2008,02,24,03,03,0.00
2008,02,24,03,04,0.00
2008,02,24,03,05,0.00
2008,02,24,03,06,0.00
2008,02,24,03,07,0.00
2008,02,24,03,08,0.00
2008,02,24,03,09,0.00
2008,02,24,03,10,0.00
2008,02,24,03,11,0.00
2008,02,24,03,12,0.00
2008,02,24,03,13,0.00
2008,02,24,03,14,0.00
2008,02,24,03,15,0.00
2008,02,24,03,16,0.00
2008,02,24,03,17,0.00
2008,02,24,03,18,0.00
2008,02,24,03,19,0.00
2008,02,24,03,20,0.00
2008,02,24,03,21,0.00
2008,02,24,03,22,0.00
2008,02,24,03,23,0.00
2008,02,24,03,24,0.00
2008,02,24,03,25,0.00
2008,02,24,03,26,0.00
2008,02,24,03,27,0.00
2008,02,24,03,28,0.00
2008,02,24,03,29,0.00
2008,02,24,03,30,0.00
2008,02,24,03,31,0.00
2008,02,24,03,32,0.00
2008,02,24,03,33,0.00
2008,02,24,03,34,0.00
2008,02,24,03,35,0.00
2008,02,24,03,36,0.00
2008,02,24,03,37,0.00
2008,02,24,03,38,0.00
2008,02,24,03,39,0.00
2008,02,24,03,40,0.00
2008,02,24,03,41,0.00
2008,02,24,03,42,0.00
2008,02,24,03,43,0.00
2008,02,24,03,44,0.00
2008,02,24,03,45,0.00
2008,02,24,03,46,0.00
2008,02,24,03,47,0.00
2008,02,24,03,48,0.00
2008,02,24,03,49,0.00
2008,02,24,03,50,0.00
2008,02,24,03,51,0.00
2008,02,24,03,52,0.00
2008,02,24,03,53,0.00
2008,02,24,03,54,0.00
2008,02,24,03,55,0.00
2008,02,24,03,56,0.00
2008,02,24,03,57,0.00
2008,02,24,03,58,0.00
2008,02,24,03,59,0.00
2008,02,24,04,00,0.00
2008,02,24,04,01,0.00
2008,02,24,04,02,0.00
2008,02,24,04,03,0.00
2008,02,24,04,04,0.00
2008,02,24,04,05,0.00
2008,02,24,04,06,0.00
2008,02,24,04,07,0.00
2008,02,24,04,08,0.00
2008,02,24,04,09,0.00
2008,02,24,04,10,0.00
2008,02,24,04,11,0.00
2008,02,24,04,12,0.00
2008,02,24,04,13,0.00
2008,02,24,04,14,0.00
2008,02,24,04,15,0.00
2008,02,24,04,16,0.00
2008,02,24,04,17,0.00
2008,02,24,04,18,0.00
2008,02,24,04,19,0.00
2008,02,24,04,20,0.00
2008,02,24,04,21,0.00
2008,02,24,04,22,0.00
2008,02,24,04,23,0.00
2008,02,24,04,24,0.00
2008,02,24,04,25,0.00
2008,02,24,04,26,0.00
2008,02,24,04,27,0.00
2008,02,24,04,28,0.00
2008,02,24,04,29,0.00
2008,02,24,04,30,0.00
2008,02,24,04,31,0.00
2008,02,24,04,32,0.00
2008,02,24,04,33,0.00
2008,02,24,04,34,0.00
2008,02,24,04,35,0.00
2008,02,24,04,36,0.00
2008,02,24,04,37,0.00
2008,02,24,04,38,0.00
2008,02,24,04,39,0.00
2008,02,24,04,40,0.00
2008,02,24,04,41,0.00
2008,02,24,04,42,0.00
2008,02,24,04,43,0.00
2008,02,24,04,44,0.00
2008,02,24,04,45,0.00
2008,02,24,04,46,0.00
2008,02,24,04,47,0.00
2008,02,24,04,48,0.00
2008,02,24,04,49,0.00
2008,02,24,04,50,0.00
2008,02,24,04,51,0.00
2008,02,24,04,52,0.00
2008,02,24,04,53,0.00
2008,02,24,04,54,0.00
2008,02,24,04,55,0.00
2008,02,24,04,56,0.00
2008,02,24,04,57,0.00
2008,02,24,04,58,0.00
2008,02,24,04,59,0.00
2008,02,24,05,00,0.00
2008,02,24,05,01,0.00
2008,02,24,05,02,0.00
2008,02,24,05,03,0.00
2008,02,24,05,04,0.00
2008,02,24,05,05,0.00
2008,02,24,05,06,0.00
2008,02,24,05,07,0.00
2008,02,24,05,08,0.00
2008,02,24,05,09,0.00
2008,02,24,05,10,0.00
2008,02,24,05,11,0.00
2008,02,24,05,12,0.00
2008,02,24,05,13,0.00
2008,02,24,05,14,0.00
2008,02,24,05,15,0.00
2008,02,24,05,16,0.00
2008,02,24,05,17,0.00
2008,02,24,05,18,0.00
2008,02,24,05,19,0.00
2008,02,24,05,20,0.00
2008,02,24,05,21,0.00
2008,02,24,05,22,0.00
2008,02,24,05,23,0.00
2008,02,24,05,24,0.00
2008,02,24,05,25,0.00
2008,02,24,05,26,0.00
2008,02,24,05,27,0.00
2008,02,24,05,28,0.00
2008,02,24,05,29,0.00
2008,02,24,05,30,0.00
2008,02,24,05,31,0.00
2008,02,24,05,32,0.00
2008,02,24,05,33,0.00
2008,02,24,05,34,0.00
2008,02,24,05,35,0.00
2008,02,24,05,36,0.00
2008,02,24,05,37,0.00
2008,02,24,05,38,0.00
2008,02,24,05,39,0.00
2008,02,24,05,40,0.00
2008,02,24,05,41,0.00
2008,02,24,05,42,0.00
2008,02,24,05,43,0.00
2008,02,24,05,44,0.00
2008,02,24,05,45,0.00
2008,02,24,05,46,0.00
2008,02,24,05,47,0.00
2008,02,24,05,48,0.00
2008,02,24,05,49,0.00
2008,02,24,05,50,0.00
2008,02,24,05,51,0.00
2008,02,24,05,52,0.00
2008,02,24,05,53,0.00
2008,02,24,05,54,0.00
2008,02,24,05,55,0.00
2008,02,24,05,56,0.00
2008,02,24,05,57,0.00
2008,02,24,05,58,0.00
2008,02,24,05,59,0.00
2008,02,24,06,00,0.00
2008,02,24,06,01,0.00
2008,02,24,06,02,0.00
2008,02,24,06,03,0.00
2008,02,24,06,04,0.00
2008,02,24,06,05,0.00
2008,02,24,06,06,0.00
2008,02,24,06,07,0.00
2008,02,24,06,08,0.00
2008,02,24,06,09,0.00
2008,02,24,06,10,0.00
2008,02,24,06,11,0.00
2008,02,24,06,12,0.00
2008,02,24,06,13,0.00
2008,02,24,06,14,0.00
2008,02,24,06,15,0.00
2008,02,24,06,16,0.00
2008,02,24,06,17,0.00
2008,02,24,06,18,0.00
2008,02,24,06,19,0.00
2008,02,24,06,20,0.00
2008,02,24,06,21,0.00
2008,02,24,06,22,0.00
2008,02,24,06,23,0.00
2008,02,24,06,24,0.00
2008,02,24,06,25,0.00
2008,02,24,06,26,0.00
2008,02,24,06,27,0.00
2008,02,24,06,28,0.00
2008,02,24,06,29,0.00
2008,02,24,06,30,0.00
2008,02,24,06,31,0.00
2008,02,24,06,32,0.00
2008,02,24,06,33,0.00
2008,02,24,06,34,0.00
2008,02,24,06,35,0.00
2008,02,24,06,36,0.00
2008,02,24,06,37,0.00
2008,02,24,06,38,0.00
2008,02,24,06,39,0.00
2008,02,24,06,40,0.00
2008,02,24,06,41,0.00
2008,02,24,06,42,0.00
2008,02,24,06,43,0.00
2008,02,24,06,44,0.00
2008,02,24,06,45,0.00
2008,02,24,06,46,0.00
2008,02,24,06,47,0.00
2008,02,24,06,48,0.00
2008,02,24,06,49,0.00
2008,02,24,06,50,0.00
2008,02,24,06,51,0.00
2008,02,24,06,52,0.00
2008,02,24,06,53,0.00
2008,02,24,06,54,0.00
2008,02,24,06,55,0.00
2008,02,24,06,56,0.00
2008,02,24,06,57,0.00
2008,02,24,06,58,0.00
2008,02,24,06,59,0.00
2008,02,24,07,00,0.00
2008,02,24,07,01,0.00
2008,02,24,07,02,0.00
2008,02,24,07,03,0.00
2008,02,24,07,04,0.00
2008,02,24,07,05,0.00
2008,02,24,07,06,0.00
2008,02,24,07,07,0.00
2008,02,24,07,08,0.00
2008,02,24,07,09,0.00
2008,02,24,07,10,0.00
2008,02,24,07,11,0.00
2008,02,24,07,12,0.00
2008,02,24,07,13,0.00
2008,02,24,07,14,0.00
2008,02,24,07,15,0.00
2008,02,24,07,16,0.00
2008,02,24,07,17,0.00
2008,02,24,07,18,0.00
2008,02,24,07,19,0.00
2008,02,24,07,20,0.00
2008,02,24,07,21,0.00
2008,02,24,07,22,0.00
2008,02,24,07,23,0.00
2008,02,24,07,24,0.00
2008,02,24,07,25,0.00
2008,02,24,07,26,0.00
2008,02,24,07,27,3.30
2008,02,24,07,28,5.00
2008,02,24,07,29,5.00
2008,02,24,07,30,5.00
2008,02,24,07,31,5.00
2008,02,24,07,32,5.00
2008,02,24,07,33,5.00
2008,02,24,07,34,5.00
2008,02,24,07,35,5.70
2008,02,24,07,36,7.00
2008,02,24,07,37,7.00
2008,02,24,07,38,7.00
2008,02,24,07,39,8.60
2008,02,24,07,40,9.00
2008,02,24,07,41,9.00
2008,02,24,07,42,9.10
2008,02,24,07,43,11.00
2008,02,24,07,44,11.00
2008,02,24,07,45,11.00
2008,02,24,07,46,11.00
2008,02,24,07,47,11.00
2008,02,24,07,48,11.60
2008,02,24,07,49,12.00
2008,02,24,07,50,12.00
2008,02,24,07,51,12.00
2008,02,24,07,52,12.00
2008,02,24,07,53,12.00
2008,02,24,07,54,12.00
2008,02,24,07,55,12.00
2008,02,24,07,56,12.00
2008,02,24,07,57,12.00
2008,02,24,07,58,12.00
2008,02,24,07,59,12.00
2008,02,24,08,00,12.00
2008,02,24,08,01,12.00
2008,02,24,08,02,12.00
2008,02,24,08,03,13.70
2008,02,24,08,04,14.00
2008,02,24,08,05,14.00
2008,02,24,08,06,14.00
2008,02,24,08,07,14.70
2008,02,24,08,08,16.00
2008,02,24,08,09,16.00
2008,02,24,08,10,16.00
2008,02,24,08,11,16.00
2008,02,24,08,12,16.00
2008,02,24,08,13,17.80
2008,02,24,08,14,18.00
2008,02,24,08,15,18.00
2008,02,24,08,16,18.10
2008,02,24,08,17,19.00
2008,02,24,08,18,19.00
2008,02,24,08,19,19.00
2008,02,24,08,20,19.90
2008,02,24,08,21,21.00
2008,02,24,08,22,21.00
2008,02,24,08,23,21.00
2008,02,24,08,24,21.00
2008,02,24,08,25,21.00
2008,02,24,08,26,21.00
2008,02,24,08,27,21.00
2008,02,24,08,28,21.00
2008,02,24,08,29,21.00
2008,02,24,08,30,21.00
2008,02,24,08,31,21.00
2008,02,24,08,32,20.00
2008,02,24,08,33,19.00
2008,02,24,08,34,19.00
2008,02,24,08,35,19.00
2008,02,24,08,36,20.90
2008,02,24,08,37,21.00
2008,02,24,08,38,21.00
2008,02,24,08,39,21.00
2008,02,24,08,40,21.00
2008,02,24,08,41,21.00
2008,02,24,08,42,21.00
2008,02,24,08,43,21.00
2008,02,24,08,44,21.00
2008,02,24,08,45,21.00
2008,02,24,08,46,21.00
2008,02,24,08,47,21.00
2008,02,24,08,48,21.00
2008,02,24,08,49,23.00
2008,02,24,08,50,23.00
2008,02,24,08,51,23.00
2008,02,24,08,52,23.80
2008,02,24,08,53,25.50
2008,02,24,08,54,27.20
2008,02,24,08,55,29.10
2008,02,24,08,56,58.30
2008,02,24,08,57,63.20
2008,02,24,08,58,29.90
2008,02,24,08,59,26.00
2008,02,24,09,00,25.00
2008,02,24,09,01,25.00
2008,02,24,09,02,25.00
2008,02,24,09,03,25.00
2008,02,24,09,04,25.50
2008,02,24,09,05,26.00
2008,02,24,09,06,26.00
2008,02,24,09,07,27.60
2008,02,24,09,08,28.00
2008,02,24,09,09,28.00
2008,02,24,09,10,28.00
2008,02,24,09,11,30.00
2008,02,24,09,12,30.50
2008,02,24,09,13,32.00
2008,02,24,09,14,32.00
2008,02,24,09,15,32.00
2008,02,24,09,16,32.00
2008,02,24,09,17,32.60
2008,02,24,09,18,33.00
2008,02,24,09,19,33.00
2008,02,24,09,20,33.00
2008,02,24,09,21,33.00
2008,02,24,09,22,33.00
2008,02,24,09,23,33.00
2008,02,24,09,24,33.00
2008,02,24,09,25,33.80
2008,02,24,09,26,35.00
2008,02,24,09,27,36.10
2008,02,24,09,28,38.30
2008,02,24,09,29,39.00
2008,02,24,09,30,39.80
2008,02,24,09,31,40.00
2008,02,24,09,32,42.00
2008,02,24,09,33,42.20
2008,02,24,09,34,44.00
2008,02,24,09,35,44.50
2008,02,24,09,36,46.00
2008,02,24,09,37,46.50
2008,02,24,09,38,47.00
2008,02,24,09,39,47.00
2008,02,24,09,40,47.00
2008,02,24,09,41,47.00
2008,02,24,09,42,47.00
2008,02,24,09,43,47.00
2008,02,24,09,44,47.20
2008,02,24,09,45,49.00
2008,02,24,09,46,49.60
2008,02,24,09,47,51.70
2008,02,24,09,48,53.00
2008,02,24,09,49,53.00
2008,02,24,09,50,53.00
2008,02,24,09,51,53.80
2008,02,24,09,52,54.00
2008,02,24,09,53,54.00
2008,02,24,09,54,54.00
2008,02,24,09,55,56.20
2008,02,24,09,56,58.30
2008,02,24,09,57,60.70
2008,02,24,09,58,62.40
2008,02,24,09,59,63.00
2008,02,24,10,00,64.00
2008,02,24,10,01,67.70
2008,02,24,10,02,69.80
2008,02,24,10,03,71.80
2008,02,24,10,04,73.90
2008,02,24,10,05,76.00
2008,02,24,10,06,76.10
2008,02,24,10,07,77.40
2008,02,24,10,08,79.00
2008,02,24,10,09,79.70
2008,02,24,10,10,81.00
2008,02,24,10,11,81.00
2008,02,24,10,12,81.00
2008,02,24,10,13,81.00
2008,02,24,10,14,81.00
2008,02,24,10,15,81.00
2008,02,24,10,16,81.00
2008,02,24,10,17,81.00
2008,02,24,10,18,81.00
2008,02,24,10,19,80.50
2008,02,24,10,20,79.00
2008,02,24,10,21,79.00
2008,02,24,10,22,80.20
2008,02,24,10,23,81.00
2008,02,24,10,24,81.00
2008,02,24,10,25,82.50
2008,02,24,10,26,83.00
2008,02,24,10,27,83.00
2008,02,24,10,28,83.00
2008,02,24,10,29,83.00
2008,02,24,10,30,83.00
2008,02,24,10,31,83.00
2008,02,24,10,32,83.00
2008,02,24,10,33,83.00
2008,02,24,10,34,83.00
2008,02,24,10,35,83.00
2008,02,24,10,36,83.00
2008,02,24,10,37,83.00
2008,02,24,10,38,83.00
2008,02,24,10,39,83.00
2008,02,24,10,40,83.00
2008,02,24,10,41,83.00
2008,02,24,10,42,82.10
2008,02,24,10,43,82.00
2008,02,24,10,44,83.00
2008,02,24,10,45,83.00
2008,02,24,10,46,83.00
2008,02,24,10,47,83.00
2008,02,24,10,48,83.00
2008,02,24,10,49,83.00
2008,02,24,10,50,83.00
2008,02,24,10,51,83.00
2008,02,24,10,52,83.00
2008,02,24,10,53,83.00
2008,02,24,10,54,83.50
2008,02,24,10,55,84.00
2008,02,24,10,56,84.00
2008,02,24,10,57,84.00
2008,02,24,10,58,84.00
2008,02,24,10,59,85.90
2008,02,24,11,00,86.00
2008,02,24,11,01,86.20
2008,02,24,11,02,88.00
2008,02,24,11,03,88.00
2008,02,24,11,04,88.00
2008,02,24,11,05,87.10
2008,02,24,11,06,86.00
2008,02,24,11,07,87.10
2008,02,24,11,08,88.00
2008,02,24,11,09,89.80
2008,02,24,11,10,90.00
2008,02,24,11,11,90.90
2008,02,24,11,12,93.00
2008,02,24,11,13,93.00
2008,02,24,11,14,92.40
2008,02,24,11,15,91.00
2008,02,24,11,16,91.80
2008,02,24,11,17,93.00
2008,02,24,11,18,91.80
2008,02,24,11,19,92.60
2008,02,24,11,20,93.00
2008,02,24,11,21,94.90
2008,02,24,11,22,95.00
2008,02,24,11,23,97.00
2008,02,24,11,24,97.20
2008,02,24,11,25,98.00
2008,02,24,11,26,98.80
2008,02,24,11,27,100.00
2008,02,24,11,28,100.00
2008,02,24,11,29,100.00
2008,02,24,11,30,101.60
2008,02,24,11,31,102.00
2008,02,24,11,32,102.00
2008,02,24,11,33,104.00
2008,02,24,11,34,104.10
2008,02,24,11,35,105.00
2008,02,24,11,36,105.00
2008,02,24,11,37,105.00
2008,02,24,11,38,104.50
2008,02,24,11,39,104.50
2008,02,24,11,40,105.00
2008,02,24,11,41,106.50
2008,02,24,11,42,107.00
2008,02,24,11,43,108.90
2008,02,24,11,44,111.00
2008,02,24,11,45,111.20
2008,02,24,11,46,113.00
2008,02,24,11,47,113.00
2008,02,24,11,48,113.00
2008,02,24,11,49,113.00
2008,02,24,11,50,113.00
2008,02,24,11,51,113.00
2008,02,24,11,52,113.70
2008,02,24,11,53,113.20
2008,02,24,11,54,113.00
2008,02,24,11,55,113.00
2008,02,24,11,56,112.80
2008,02,24,11,57,111.00
2008,02,24,11,58,111.00
2008,02,24,11,59,110.20
2008,02,24,12,00,109.00
2008,02,24,12,01,107.80
2008,02,24,12,02,107.00
2008,02,24,12,03,108.60
2008,02,24,12,04,109.00
2008,02,24,12,05,110.60
2008,02,24,12,06,112.90
2008,02,24,12,07,114.00
2008,02,24,12,08,114.00
2008,02,24,12,09,114.00
2008,02,24,12,10,114.80
2008,02,24,12,11,116.00
2008,02,24,12,12,116.00
2008,02,24,12,13,114.70
2008,02,24,12,14,114.00
2008,02,24,12,15,113.10
2008,02,24,12,16,113.00
2008,02,24,12,17,113.00
2008,02,24,12,18,113.00
2008,02,24,12,19,113.00
2008,02,24,12,20,112.30
2008,02,24,12,21,111.80
2008,02,24,12,22,113.00
2008,02,24,12,23,113.00
2008,02,24,12,24,115.00
2008,02,24,12,25,116.00
2008,02,24,12,26,116.00
2008,02,24,12,27,116.00
2008,02,24,12,28,116.00
2008,02,24,12,29,118.20
2008,02,24,12,30,120.00
2008,02,24,12,31,120.20
2008,02,24,12,32,121.80
2008,02,24,12,33,129.00
2008,02,24,12,34,130.90
2008,02,24,12,35,125.20
2008,02,24,12,36,123.00
2008,02,24,12,37,129.90
2008,02,24,12,38,148.10
2008,02,24,12,39,161.40
2008,02,24,12,40,149.60
2008,02,24,12,41,138.70
2008,02,24,12,42,138.80
2008,02,24,12,43,145.90
2008,02,24,12,44,144.30
2008,02,24,12,45,136.60
2008,02,24,12,46,134.30
2008,02,24,12,47,132.50
2008,02,24,12,48,132.00
2008,02,24,12,49,149.90
2008,02,24,12,50,132.00
2008,02,24,12,51,128.60
2008,02,24,12,52,132.80
2008,02,24,12,53,126.50
2008,02,24,12,54,125.70
2008,02,24,12,55,129.50
2008,02,24,12,56,129.10
2008,02,24,12,57,127.00
2008,02,24,12,58,130.90
2008,02,24,12,59,130.20
2008,02,24,13,00,127.40
2008,02,24,13,01,126.80
2008,02,24,13,02,123.00
2008,02,24,13,03,123.70
2008,02,24,13,04,127.80
2008,02,24,13,05,132.70
2008,02,24,13,06,134.60
2008,02,24,13,07,129.40
2008,02,24,13,08,125.70
2008,02,24,13,09,123.70
2008,02,24,13,10,126.50
2008,02,24,13,11,127.00
2008,02,24,13,12,123.30
2008,02,24,13,13,120.90
2008,02,24,13,14,120.00
2008,02,24,13,15,119.30
2008,02,24,13,16,117.20
2008,02,24,13,17,115.20
2008,02,24,13,18,114.00
2008,02,24,13,19,114.00
2008,02,24,13,20,115.60
2008,02,24,13,21,119.60
2008,02,24,13,22,120.00
2008,02,24,13,23,121.00
2008,02,24,13,24,121.00
2008,02,24,13,25,120.50
2008,02,24,13,26,118.50
2008,02,24,13,27,121.50
2008,02,24,13,28,120.20
2008,02,24,13,29,113.00
2008,02,24,13,30,111.70
2008,02,24,13,31,112.30
2008,02,24,13,32,113.80
2008,02,24,13,33,115.90
2008,02,24,13,34,116.20
2008,02,24,13,35,120.90
2008,02,24,13,36,128.30
2008,02,24,13,37,129.40
2008,02,24,13,38,127.70
2008,02,24,13,39,127.00
2008,02,24,13,40,133.70
2008,02,24,13,41,170.10
2008,02,24,13,42,178.40
2008,02,24,13,43,144.50
2008,02,24,13,44,147.20
2008,02,24,13,45,142.50
2008,02,24,13,46,161.30
2008,02,24,13,47,180.40
2008,02,24,13,48,162.30
2008,02,24,13,49,182.50
2008,02,24,13,50,196.60
2008,02,24,13,51,241.80
2008,02,24,13,52,244.10
2008,02,24,13,53,218.00
2008,02,24,13,54,218.00
2008,02,24,13,55,206.70
2008,02,24,13,56,239.30
2008,02,24,13,57,339.20
2008,02,24,13,58,397.20
2008,02,24,13,59,337.70
2008,02,24,14,00,320.80
2008,02,24,14,01,292.00
2008,02,24,14,02,292.00
2008,02,24,14,03,288.80
2008,02,24,14,04,320.10
2008,02,24,14,05,258.00
2008,02,24,14,06,246.10
2008,02,24,14,07,246.00
2008,02,24,14,08,413.50
2008,02,24,14,09,365.40
2008,02,24,14,10,418.00
2008,02,24,14,11,409.90
2008,02,24,14,12,430.10
2008,02,24,14,13,441.10
2008,02,24,14,14,416.60
2008,02,24,14,15,397.00
2008,02,24,14,16,212.60
2008,02,24,14,17,172.60
2008,02,24,14,18,121.00
2008,02,24,14,19,98.00
2008,02,24,14,20,88.00
2008,02,24,14,21,90.10
2008,02,24,14,22,98.20
2008,02,24,14,23,108.10
2008,02,24,14,24,113.00
2008,02,24,14,25,107.70
2008,02,24,14,26,105.00
2008,02,24,14,27,112.90
2008,02,24,14,28,188.80
2008,02,24,14,29,253.80
2008,02,24,14,30,190.40
2008,02,24,14,31,239.90
2008,02,24,14,32,207.80
2008,02,24,14,33,187.10
2008,02,24,14,34,164.20
2008,02,24,14,35,139.50
2008,02,24,14,36,125.00
2008,02,24,14,37,147.90
2008,02,24,14,38,188.50
2008,02,24,14,39,186.20
2008,02,24,14,40,137.00
2008,02,24,14,41,121.80
2008,02,24,14,42,109.90
2008,02,24,14,43,103.00
2008,02,24,14,44,98.90
2008,02,24,14,45,97.50
2008,02,24,14,46,101.00
2008,02,24,14,47,102.70
2008,02,24,14,48,103.50
2008,02,24,14,49,104.80
2008,02,24,14,50,100.30
2008,02,24,14,51,97.00
2008,02,24,14,52,104.00
2008,02,24,14,53,104.20
2008,02,24,14,54,102.70
2008,02,24,14,55,96.10
2008,02,24,14,56,92.00
2008,02,24,14,57,92.20
2008,02,24,14,58,93.00
2008,02,24,14,59,93.00
2008,02,24,15,00,93.00
2008,02,24,15,01,94.90
2008,02,24,15,02,95.00
2008,02,24,15,03,95.90
2008,02,24,15,04,104.90
2008,02,24,15,05,105.50
2008,02,24,15,06,93.50
2008,02,24,15,07,88.20
2008,02,24,15,08,88.40
2008,02,24,15,09,100.60
2008,02,24,15,10,115.10
2008,02,24,15,11,101.30
2008,02,24,15,12,108.40
2008,02,24,15,13,109.00
2008,02,24,15,14,91.60
2008,02,24,15,15,78.60
2008,02,24,15,16,76.70
2008,02,24,15,17,76.40
2008,02,24,15,18,77.00
2008,02,24,15,19,74.20
2008,02,24,15,20,70.70
2008,02,24,15,21,70.00
2008,02,24,15,22,88.50
2008,02,24,15,23,123.80
2008,02,24,15,24,119.40
2008,02,24,15,25,99.40
2008,02,24,15,26,92.90
2008,02,24,15,27,78.30
2008,02,24,15,28,59.50
2008,02,24,15,29,53.50
2008,02,24,15,30,53.00
2008,02,24,15,31,53.60
2008,02,24,15,32,52.00
2008,02,24,15,33,48.00
2008,02,24,15,34,46.10
2008,02,24,15,35,49.00
2008,02,24,15,36,48.40
2008,02,24,15,37,43.10
2008,02,24,15,38,40.00
2008,02,24,15,39,40.00
2008,02,24,15,40,40.00
2008,02,24,15,41,39.40
2008,02,24,15,42,39.00
2008,02,24,15,43,39.00
2008,02,24,15,44,39.90
2008,02,24,15,45,41.90
2008,02,24,15,46,46.00
2008,02,24,15,47,44.00
2008,02,24,15,48,44.90
2008,02,24,15,49,47.20
2008,02,24,15,50,40.80
2008,02,24,15,51,39.00
2008,02,24,15,52,39.00
2008,02,24,15,53,36.60
2008,02,24,15,54,33.40
2008,02,24,15,55,33.00
2008,02,24,15,56,32.10
2008,02,24,15,57,32.00
2008,02,24,15,58,32.00
2008,02,24,15,59,32.00
2008,02,24,16,00,33.20
2008,02,24,16,01,38.10
2008,02,24,16,02,35.00
2008,02,24,16,03,25.90
2008,02,24,16,04,24.20
2008,02,24,16,05,23.40
2008,02,24,16,06,21.20
2008,02,24,16,07,22.70
2008,02,24,16,08,25.00
2008,02,24,16,09,24.80
2008,02,24,16,10,22.60
2008,02,24,16,11,20.00
2008,02,24,16,12,18.00
2008,02,24,16,13,18.00
2008,02,24,16,14,18.00
2008,02,24,16,15,18.00
2008,02,24,16,16,18.00
2008,02,24,16,17,18.00
2008,02,24,16,18,18.90
2008,02,24,16,19,26.00
2008,02,24,16,20,25.90
2008,02,24,16,21,25.20
2008,02,24,16,22,26.50
2008,02,24,16,23,28.00
2008,02,24,16,24,25.20
2008,02,24,16,25,20.00
2008,02,24,16,26,19.00
2008,02,24,16,27,18.20
2008,02,24,16,28,18.00
2008,02,24,16,29,18.00
2008,02,24,16,30,18.00
2008,02,24,16,31,16.00
2008,02,24,16,32,16.00
2008,02,24,16,33,16.50
2008,02,24,16,34,18.00
2008,02,24,16,35,18.00
2008,02,24,16,36,18.00
2008,02,24,16,37,16.70
2008,02,24,16,38,16.00
2008,02,24,16,39,16.00
2008,02,24,16,40,16.00
2008,02,24,16,41,16.00
2008,02,24,16,42,16.00
2008,02,24,16,43,16.00
2008,02,24,16,44,16.00
2008,02,24,16,45,16.00
2008,02,24,16,46,16.00
2008,02,24,16,47,16.00
2008,02,24,16,48,14.70
2008,02,24,16,49,14.00
2008,02,24,16,50,14.00
2008,02,24,16,51,14.00
2008,02,24,16,52,14.00
2008,02,24,16,53,14.00
2008,02,24,16,54,14.00
2008,02,24,16,55,14.00
2008,02,24,16,56,14.00
2008,02,24,16,57,14.00
2008,02,24,16,58,14.00
2008,02,24,16,59,14.00
2008,02,24,17,00,14.00
2008,02,24,17,01,15.70
2008,02,24,17,02,16.00
2008,02,24,17,03,17.80
2008,02,24,17,04,18.00
2008,02,24,17,05,18.00
2008,02,24,17,06,18.00
2008,02,24,17,07,18.40
2008,02,24,17,08,19.00
2008,02,24,17,09,19.00
2008,02,24,17,10,19.00
2008,02,24,17,11,19.00
2008,02,24,17,12,18.10
2008,02,24,17,13,18.00
2008,02,24,17,14,18.00
2008,02,24,17,15,17.80
2008,02,24,17,16,16.00
2008,02,24,17,17,16.00
2008,02,24,17,18,15.20
2008,02,24,17,19,13.10
2008,02,24,17,20,12.00
2008,02,24,17,21,11.40
2008,02,24,17,22,11.00
2008,02,24,17,23,11.00
2008,02,24,17,24,9.10
2008,02,24,17,25,8.90
2008,02,24,17,26,7.00
2008,02,24,17,27,7.00
2008,02,24,17,28,7.00
2008,02,24,17,29,6.30
2008,02,24,17,30,5.00